Time,TemperatureF,DewpointF,PressureIn,WindDirection,WindDirectionDegrees,WindSpeedMPH,WindSpeedGustMPH,Humidity,HourlyPrecipIn,Conditions,Clouds,dailyrainin,SoftwareType,DateUTC
2013-02-26 00:00:00,36.9,21.8,30.15,SSE,158,0.0,2.0,54,0.00,OVC,OVC,0.00,WeatherDisplay:10.31,2013-02-26 05:00:00,
2013-02-26 00:05:00,36.9,21.8,30.15,SSE,158,0.0,1.0,54,0.00,OVC,OVC,0.00,WeatherDisplay:10.31,2013-02-26 05:05:00,
2013-02-26 00:10:00,36.8,21.7,30.14,SSE,158,1.0,2.0,54,0.00,OVC,OVC,0.00,WeatherDisplay:10.31,2013-02-26 05:10:00,
2013-02-26 00:20:00,36.6,21.5,30.15,SSE,158,0.0,2.0,54,0.00,OVC,OVC,0.00,WeatherDisplay:10.31,2013-02-26 05:20:00,
2013-02-26 00:30:00,36.6,21.5,30.14,SSE,158,1.0,2.0,54,0.00,OVC,OVC,0.00,WeatherDisplay:10.31,2013-02-26 05:30:00,
2013-02-26 00:40:00,36.5,21.4,30.14,SSE,158,0.0,1.0,54,0.00,OVC,OVC,0.00,WeatherDisplay:10.31,2013-02-26 05:40:00,
2013-02-26 00:45:00,36.5,21.8,30.15,SSE,158,0.0,2.0,55,0.00,OVC,OVC,0.00,WeatherDisplay:10.31,2013-02-26 05:45:00,
2013-02-26 00:50:00,36.3,21.7,30.14,SSE,158,1.0,3.0,55,0.00,OVC,OVC,0.00,WeatherDisplay:10.31,2013-02-26 05:50:00,
2013-02-26 01:00:00,36.2,21.6,30.14,SSE,158,0.0,2.0,55,0.00,OVC,OVC,0.00,WeatherDisplay:10.31,2013-02-26 06:00:00,
2013-02-26 01:05:00,36.0,21.8,30.15,SSE,158,1.0,2.0,56,0.00,OVC,OVC,0.00,WeatherDisplay:10.31,2013-02-26 06:05:00,
2013-02-26 01:10:00,35.9,21.7,30.15,SSE,158,2.0,3.0,56,0.00,OVC,OVC,0.00,WeatherDisplay:10.31,2013-02-26 06:10:00,
2013-02-26 01:20:00,35.9,21.7,30.15,SSE,158,0.0,2.0,56,0.00,OVC,OVC,0.00,WeatherDisplay:10.31,2013-02-26 06:20:00,
2013-02-26 01:30:00,35.9,21.7,30.16,SSE,158,1.0,1.0,56,0.00,OVC,OVC,0.00,WeatherDisplay:10.31,2013-02-26 06:30:00,
2013-02-26 01:40:00,35.9,22.1,30.16,SSE,158,1.0,1.0,57,0.00,OVC,OVC,0.00,WeatherDisplay:10.31,2013-02-26 06:40:00,
2013-02-26 01:50:00,35.9,22.1,30.16,SSE,158,1.0,2.0,57,0.00,OVC,OVC,0.00,WeatherDisplay:10.31,2013-02-26 06:50:00,
2013-02-26 02:00:00,35.9,22.5,30.16,SSE,158,0.0,1.0,58,0.00,OVC,OVC,0.00,WeatherDisplay:10.31,2013-02-26 07:00:00,
2013-02-26 02:05:00,35.9,23.0,30.17,SSE,158,0.0,2.0,59,0.00,OVC,OVC,0.00,WeatherDisplay:10.31,2013-02-26 07:05:00,
2013-02-26 02:10:00,35.9,23.0,30.17,SSE,158,0.0,0.0,59,0.00,OVC,OVC,0.00,WeatherDisplay:10.31,2013-02-26 07:10:00,
2013-02-26 02:20:00,35.9,23.0,30.16,SSE,158,0.0,1.0,59,0.00,OVC,OVC,0.00,WeatherDisplay:10.31,2013-02-26 07:20:00,
2013-02-26 02:30:00,35.8,23.3,30.16,SSE,158,1.0,2.0,60,0.00,OVC,OVC,0.00,WeatherDisplay:10.31,2013-02-26 07:30:00,
2013-02-26 02:40:00,35.5,23.4,30.14,SSE,158,0.0,1.0,61,0.00,OVC,OVC,0.00,WeatherDisplay:10.31,2013-02-26 07:40:00,
2013-02-26 02:50:00,35.3,24.3,30.14,SSE,158,0.0,2.0,64,0.00,OVC,OVC,0.00,WeatherDisplay:10.31,2013-02-26 07:50:00,
2013-02-26 03:00:00,35.2,25.0,30.15,SSE,158,0.0,2.0,66,0.00,OVC,OVC,0.00,WeatherDisplay:10.31,2013-02-26 08:00:00,
2013-02-26 03:05:00,35.0,25.1,30.16,SSE,158,0.0,2.0,67,0.00,OVC,OVC,0.00,WeatherDisplay:10.31,2013-02-26 08:05:00,
2013-02-26 03:10:00,34.9,24.7,30.16,SSE,158,0.0,1.0,66,0.00,OVC,OVC,0.00,WeatherDisplay:10.31,2013-02-26 08:10:00,
2013-02-26 03:20:00,34.7,25.6,30.14,SSE,158,1.0,2.0,69,0.00,OVC,OVC,0.00,WeatherDisplay:10.31,2013-02-26 08:20:00,
2013-02-26 03:30:00,34.7,26.3,30.14,SSE,158,0.0,1.0,71,0.00,OVC,OVC,0.00,WeatherDisplay:10.31,2013-02-26 08:30:00,
2013-02-26 03:40:00,34.4,26.3,30.13,SSE,158,1.0,2.0,72,0.00,OVC,OVC,0.00,WeatherDisplay:10.31,2013-02-26 08:40:00,
2013-02-26 03:50:00,34.3,25.9,30.12,SSE,158,1.0,3.0,71,0.00,OVC,OVC,0.00,WeatherDisplay:10.31,2013-02-26 08:50:00,
2013-02-26 04:00:00,34.1,25.7,30.13,SSE,158,0.0,2.0,71,0.00,OVC,OVC,0.00,WeatherDisplay:10.31,2013-02-26 09:00:00,
2013-02-26 04:05:00,34.1,25.7,30.13,SSE,158,1.0,2.0,71,0.00,OVC,OVC,0.00,WeatherDisplay:10.31,2013-02-26 09:05:00,
2013-02-26 04:10:00,34.0,25.2,30.13,SSE,158,2.0,3.0,70,0.00,OVC,OVC,0.00,WeatherDisplay:10.31,2013-02-26 09:10:00,
2013-02-26 04:20:00,34.0,25.2,30.12,SSE,158,1.0,3.0,70,0.00,OVC,OVC,0.00,WeatherDisplay:10.31,2013-02-26 09:20:00,
2013-02-26 04:30:00,34.0,25.2,30.11,SSE,158,1.0,3.0,70,0.00,OVC,OVC,0.00,WeatherDisplay:10.31,2013-02-26 09:30:00,
2013-02-26 04:40:00,34.0,25.2,30.11,SE,135,1.0,2.0,70,0.00,OVC,OVC,0.00,WeatherDisplay:10.31,2013-02-26 09:40:00,
2013-02-26 04:50:00,33.7,24.6,30.11,SE,135,2.0,3.0,69,0.00,OVC,OVC,0.00,WeatherDisplay:10.31,2013-02-26 09:50:00,
2013-02-26 05:00:00,33.7,24.6,30.11,SE,135,1.0,2.0,69,0.00,OVC,OVC,0.00,WeatherDisplay:10.31,2013-02-26 10:00:00,
2013-02-26 05:10:00,33.7,24.6,30.13,SE,135,0.0,2.0,69,0.00,OVC,OVC,0.00,WeatherDisplay:10.31,2013-02-26 10:10:00,
2013-02-26 05:20:00,33.5,24.4,30.13,SE,135,0.0,1.0,69,0.00,OVC,OVC,0.00,WeatherDisplay:10.31,2013-02-26 10:20:00,
2013-02-26 05:30:00,33.5,24.4,30.13,SE,135,1.0,2.0,69,0.00,OVC,OVC,0.00,WeatherDisplay:10.31,2013-02-26 10:30:00,
2013-02-26 05:40:00,33.5,24.8,30.13,SE,135,1.0,3.0,70,0.00,OVC,OVC,0.00,WeatherDisplay:10.31,2013-02-26 10:40:00,
2013-02-26 05:50:00,33.5,24.8,30.13,SE,135,1.0,3.0,70,0.00,OVC,OVC,0.00,WeatherDisplay:10.31,2013-02-26 10:50:00,
2013-02-26 06:00:00,33.7,24.6,30.13,SE,135,1.0,2.0,69,0.00,OVC,OVC,0.00,WeatherDisplay:10.31,2013-02-26 11:00:00,
2013-02-26 06:05:00,33.7,24.6,30.13,SE,135,1.0,3.0,69,0.00,OVC,OVC,0.00,WeatherDisplay:10.31,2013-02-26 11:05:00,
2013-02-26 06:10:00,33.7,24.6,30.13,SE,135,2.0,3.0,69,0.00,OVC,OVC,0.00,WeatherDisplay:10.31,2013-02-26 11:10:00,
2013-02-26 06:20:00,33.8,24.7,30.13,ESE,122,2.0,3.0,69,0.00,OVC,OVC,0.00,WeatherDisplay:10.31,2013-02-26 11:20:00,
2013-02-26 06:25:00,33.8,25.0,30.13,ESE,113,2.0,3.0,70,0.00,OVC,OVC,0.00,WeatherDisplay:10.31,2013-02-26 11:25:00,
2013-02-26 06:30:00,33.8,25.0,30.13,ESE,113,1.0,3.0,70,0.00,OVC,OVC,0.00,WeatherDisplay:10.31,2013-02-26 11:30:00,
2013-02-26 06:40:00,33.8,25.0,30.13,ESE,113,2.0,3.0,70,0.00,OVC,OVC,0.00,WeatherDisplay:10.31,2013-02-26 11:40:00,
2013-02-26 06:50:00,34.0,25.2,30.13,ESE,113,1.0,2.0,70,0.00,OVC,OVC,0.00,WeatherDisplay:10.31,2013-02-26 11:50:00,
2013-02-26 07:00:00,34.0,25.6,30.12,ESE,113,2.0,3.0,71,0.00,OVC,OVC,0.00,WeatherDisplay:10.31,2013-02-26 12:00:00,
2013-02-26 07:05:00,34.0,25.6,30.13,ESE,113,1.0,3.0,71,0.00,OVC,OVC,0.00,WeatherDisplay:10.31,2013-02-26 12:05:00,
2013-02-26 07:10:00,34.0,25.9,30.13,ESE,113,1.0,3.0,72,0.00,OVC,OVC,0.00,WeatherDisplay:10.31,2013-02-26 12:10:00,
2013-02-26 07:20:00,34.1,26.3,30.11,ESE,113,1.0,3.0,73,0.00,OVC,OVC,0.00,WeatherDisplay:10.31,2013-02-26 12:20:00,
2013-02-26 07:30:00,34.3,26.9,30.13,ESE,113,0.0,3.0,74,0.00,OVC,OVC,0.00,WeatherDisplay:10.31,2013-02-26 12:30:00,
2013-02-26 07:40:00,34.4,27.3,30.13,East,89,2.0,6.0,75,0.00,OVC,OVC,0.00,WeatherDisplay:10.31,2013-02-26 12:40:00,
2013-02-26 07:45:00,34.6,27.5,30.13,ENE,71,1.0,3.0,75,0.00,OVC,OVC,0.00,WeatherDisplay:10.31,2013-02-26 12:45:00,
2013-02-26 07:50:00,34.6,27.5,30.13,ENE,68,2.0,3.0,75,0.00,OVC,OVC,0.00,WeatherDisplay:10.31,2013-02-26 12:50:00,
2013-02-26 08:00:00,34.9,28.1,30.12,NE,53,2.0,5.0,76,0.00,OVC,OVC,0.00,WeatherDisplay:10.31,2013-02-26 13:00:00,
2013-02-26 08:05:00,34.9,28.1,30.11,NE,45,2.0,6.0,76,0.00,OVC,OVC,0.00,WeatherDisplay:10.31,2013-02-26 13:05:00,
2013-02-26 08:10:00,34.9,28.1,30.11,NE,48,2.0,5.0,76,0.00,OVC,OVC,0.00,WeatherDisplay:10.31,2013-02-26 13:10:00,
2013-02-26 08:20:00,35.2,28.7,30.12,NE,45,2.0,3.0,77,0.00,OVC,OVC,0.00,WeatherDisplay:10.31,2013-02-26 13:20:00,
2013-02-26 08:30:00,35.5,29.0,30.12,NE,48,3.0,5.0,77,0.00,OVC,OVC,0.00,WeatherDisplay:10.31,2013-02-26 13:30:00,
2013-02-26 08:40:00,35.6,28.8,30.12,NE,48,3.0,6.0,76,0.00,OVC,OVC,0.00,WeatherDisplay:10.31,2013-02-26 13:40:00,
2013-02-26 08:50:00,35.9,28.7,30.12,ENE,57,2.0,6.0,75,0.00,OVC,OVC,0.00,WeatherDisplay:10.31,2013-02-26 13:50:00,
2013-02-26 08:55:00,36.0,28.5,30.13,NE,52,1.0,5.0,74,0.00,OVC,OVC,0.00,WeatherDisplay:10.31,2013-02-26 13:55:00,
2013-02-26 09:05:00,36.3,28.8,30.13,NE,45,2.0,3.0,74,0.00,BKN,BKN,0.00,WeatherDisplay:10.31,2013-02-26 14:05:00,
2013-02-26 09:10:00,36.6,29.1,30.13,NE,47,2.0,6.0,74,0.00,BKN,BKN,0.00,WeatherDisplay:10.31,2013-02-26 14:10:00,
2013-02-26 09:20:00,37.0,28.4,30.13,NE,53,2.0,7.0,71,0.00,OVC,OVC,0.00,WeatherDisplay:10.31,2013-02-26 14:20:00,
2013-02-26 09:30:00,37.2,27.6,30.13,ENE,63,2.0,6.0,68,0.00,OVC,OVC,0.00,WeatherDisplay:10.31,2013-02-26 14:30:00,
2013-02-26 09:40:00,37.5,27.5,30.14,ENE,65,3.0,5.0,67,0.00,OVC,OVC,0.00,WeatherDisplay:10.31,2013-02-26 14:40:00,
2013-02-26 09:45:00,37.6,27.6,30.13,ENE,58,3.0,5.0,67,0.00,OVC,OVC,0.00,WeatherDisplay:10.31,2013-02-26 14:45:00,
2013-02-26 09:50:00,37.8,27.5,30.13,ENE,65,2.0,6.0,66,0.00,OVC,OVC,0.00,WeatherDisplay:10.31,2013-02-26 14:50:00,
2013-02-26 10:00:00,38.0,26.9,30.13,ENE,78,3.0,10.0,64,0.00,OVC,OVC,0.00,WeatherDisplay:10.31,2013-02-26 15:00:00,
2013-02-26 10:05:00,38.2,27.1,30.12,East,79,3.0,7.0,64,0.00,OVC,OVC,0.00,WeatherDisplay:10.31,2013-02-26 15:05:00,
2013-02-26 10:10:00,38.3,27.2,30.12,ENE,77,3.0,6.0,64,0.00,OVC,OVC,0.00,WeatherDisplay:10.31,2013-02-26 15:10:00,
2013-02-26 10:20:00,38.5,27.4,30.10,ENE,74,5.0,12.0,64,0.00,OVC,OVC,0.00,WeatherDisplay:10.31,2013-02-26 15:20:00,
2013-02-26 10:30:00,38.6,27.8,30.10,ENE,70,2.0,10.0,65,0.00,OVC,OVC,0.00,WeatherDisplay:10.31,2013-02-26 15:30:00,
2013-02-26 10:35:00,38.8,28.0,30.10,ENE,60,3.0,6.0,65,0.00,OVC,OVC,0.00,WeatherDisplay:10.31,2013-02-26 15:35:00,
2013-02-26 10:40:00,38.9,28.1,30.10,ENE,60,2.0,6.0,65,0.00,OVC,OVC,0.00,WeatherDisplay:10.31,2013-02-26 15:40:00,
2013-02-26 10:50:00,38.9,28.1,30.09,ENE,77,2.0,6.0,65,0.00,OVC,OVC,0.00,WeatherDisplay:10.31,2013-02-26 15:50:00,
2013-02-26 11:00:00,39.1,28.7,30.09,ENE,58,3.0,7.0,66,0.00,OVC,OVC,0.00,WeatherDisplay:10.31,2013-02-26 16:00:00,
2013-02-26 11:05:00,39.2,28.4,30.08,ENE,57,2.0,5.0,65,0.00,OVC,OVC,0.00,WeatherDisplay:10.31,2013-02-26 16:05:00,
2013-02-26 11:10:00,39.2,28.4,30.08,ENE,69,3.0,9.0,65,0.00,OVC,OVC,0.00,WeatherDisplay:10.31,2013-02-26 16:10:00,
2013-02-26 11:20:00,39.5,29.1,30.08,ENE,58,5.0,8.0,66,0.00,OVC,OVC,0.00,WeatherDisplay:10.31,2013-02-26 16:20:00,
2013-02-26 11:30:00,39.5,29.8,30.08,ENE,61,5.0,10.0,68,0.00,OVC,OVC,0.00,WeatherDisplay:10.31,2013-02-26 16:30:00,
2013-02-26 11:40:00,39.3,30.3,30.07,NE,49,3.0,9.0,70,0.00,OVC,OVC,0.00,WeatherDisplay:10.31,2013-02-26 16:40:00,
2013-02-26 11:50:00,39.3,31.4,30.07,NE,54,3.0,9.0,73,0.01,RA,RA,0.01,WeatherDisplay:10.31,2013-02-26 16:50:00,
2013-02-26 12:00:00,39.2,31.6,30.06,ENE,66,5.0,7.0,74,0.00,OVC,OVC,0.01,WeatherDisplay:10.31,2013-02-26 17:00:00,
2013-02-26 12:05:00,39.2,31.9,30.06,ENE,62,5.0,7.0,75,0.00,OVC,OVC,0.01,WeatherDisplay:10.31,2013-02-26 17:05:00,
2013-02-26 12:10:00,39.1,31.8,30.05,ENE,59,3.0,7.0,75,0.00,OVC,OVC,0.01,WeatherDisplay:10.31,2013-02-26 17:10:00,
2013-02-26 12:20:00,39.1,32.5,30.05,NE,47,3.0,10.0,77,0.00,RA,RA,0.02,WeatherDisplay:10.31,2013-02-26 17:20:00,
2013-02-26 12:30:00,39.2,32.9,30.05,NE,47,5.0,7.0,78,0.00,OVC,OVC,0.02,WeatherDisplay:10.31,2013-02-26 17:30:00,
2013-02-26 12:40:00,39.2,33.2,30.04,NE,47,5.0,12.0,79,0.01,RA,RA,0.03,WeatherDisplay:10.31,2013-02-26 17:40:00,
2013-02-26 12:50:00,39.2,33.5,30.04,NE,52,3.0,7.0,80,0.00,OVC,OVC,0.03,WeatherDisplay:10.31,2013-02-26 17:50:00,
2013-02-26 13:00:00,39.2,33.9,30.02,NE,52,7.0,12.0,81,0.00,RA,RA,0.04,WeatherDisplay:10.31,2013-02-26 18:00:00,
2013-02-26 13:10:00,39.1,34.1,30.00,NE,50,5.0,12.0,82,0.01,RA,RA,0.05,WeatherDisplay:10.31,2013-02-26 18:10:00,
2013-02-26 13:20:00,39.2,34.5,30.00,NE,49,6.0,10.0,83,0.00,OVC,OVC,0.05,WeatherDisplay:10.31,2013-02-26 18:20:00,
2013-02-26 13:30:00,39.3,34.9,29.99,NE,47,6.0,12.0,84,0.01,RA,RA,0.06,WeatherDisplay:10.31,2013-02-26 18:30:00,
2013-02-26 13:40:00,39.3,35.2,29.98,NE,47,8.0,12.0,85,0.00,OVC,OVC,0.06,WeatherDisplay:10.31,2013-02-26 18:40:00,
2013-02-26 13:50:00,39.5,35.4,29.98,NE,52,5.0,9.0,85,0.00,RA,RA,0.07,WeatherDisplay:10.31,2013-02-26 18:50:00,
2013-02-26 14:00:00,39.5,35.7,29.97,NE,47,6.0,10.0,86,0.00,OVC,OVC,0.07,WeatherDisplay:10.31,2013-02-26 19:00:00,
2013-02-26 14:05:00,39.6,35.8,29.97,NE,47,6.0,13.0,86,0.01,RA,RA,0.08,WeatherDisplay:10.31,2013-02-26 19:05:00,
2013-02-26 14:10:00,39.6,36.0,29.96,NE,47,6.0,12.0,87,0.01,RA,RA,0.09,WeatherDisplay:10.31,2013-02-26 19:10:00,
2013-02-26 14:20:00,39.9,36.3,29.95,NE,47,7.0,13.0,87,0.01,RA,RA,0.10,WeatherDisplay:10.31,2013-02-26 19:20:00,
2013-02-26 14:30:00,39.9,36.6,29.95,NE,45,8.0,13.0,88,0.00,OVC,OVC,0.10,WeatherDisplay:10.31,2013-02-26 19:30:00,
2013-02-26 14:40:00,40.1,36.8,29.93,NE,48,5.0,13.0,88,0.01,RA,RA,0.11,WeatherDisplay:10.31,2013-02-26 19:40:00,
2013-02-26 14:50:00,40.3,37.0,29.92,NE,49,5.0,12.0,88,0.00,OVC,OVC,0.11,WeatherDisplay:10.31,2013-02-26 19:50:00,
2013-02-26 15:00:00,40.3,37.3,29.92,NE,55,6.0,12.0,89,0.00,RA,RA,0.12,WeatherDisplay:10.31,2013-02-26 20:00:00,
2013-02-26 15:05:00,40.3,37.3,29.91,NE,54,7.0,15.0,89,0.01,RA,RA,0.13,WeatherDisplay:10.31,2013-02-26 20:05:00,
2013-02-26 15:10:00,40.5,37.5,29.90,NE,52,6.0,12.0,89,0.00,RA,RA,0.13,WeatherDisplay:10.31,2013-02-26 20:10:00,
2013-02-26 15:20:00,40.6,37.6,29.89,NE,50,6.0,17.0,89,0.00,RA,RA,0.14,WeatherDisplay:10.31,2013-02-26 20:20:00,
2013-02-26 15:30:00,40.6,37.9,29.87,NE,54,9.0,18.0,90,0.01,RA,RA,0.15,WeatherDisplay:10.31,2013-02-26 20:30:00,
2013-02-26 15:40:00,40.8,38.1,29.86,ENE,59,6.0,15.0,90,0.01,RA,RA,0.16,WeatherDisplay:10.31,2013-02-26 20:40:00,
2013-02-26 15:50:00,40.9,38.2,29.85,ENE,63,8.0,16.0,90,0.01,RA,RA,0.17,WeatherDisplay:10.31,2013-02-26 20:50:00,
2013-02-26 16:00:00,41.1,38.4,29.84,NE,56,12.0,15.0,90,0.01,RA,RA,0.18,WeatherDisplay:10.31,2013-02-26 21:00:00,
2013-02-26 16:10:00,41.2,38.5,29.83,ENE,61,7.0,16.0,90,0.00,OVC,OVC,0.18,WeatherDisplay:10.31,2013-02-26 21:10:00,
2013-02-26 16:20:00,41.3,38.6,29.82,ENE,65,8.0,15.0,90,0.00,OVC,OVC,0.18,WeatherDisplay:10.31,2013-02-26 21:20:00,
2013-02-26 16:30:00,41.5,38.8,29.80,ENE,60,6.0,12.0,90,0.00,OVC,OVC,0.18,WeatherDisplay:10.31,2013-02-26 21:30:00,
2013-02-26 16:40:00,41.6,38.9,29.79,ENE,63,7.0,14.0,90,0.00,RA,RA,0.19,WeatherDisplay:10.31,2013-02-26 21:40:00,
2013-02-26 16:50:00,41.8,39.1,29.76,NE,56,10.0,17.0,90,0.00,OVC,OVC,0.19,WeatherDisplay:10.31,2013-02-26 21:50:00,
2013-02-26 17:00:00,41.9,39.2,29.77,NE,56,10.0,18.0,90,0.00,OVC,OVC,0.19,WeatherDisplay:10.31,2013-02-26 22:00:00,
2013-02-26 17:10:00,41.9,39.2,29.76,ENE,64,10.0,16.0,90,0.00,OVC,OVC,0.19,WeatherDisplay:10.31,2013-02-26 22:10:00,
2013-02-26 17:20:00,42.2,39.5,29.76,ENE,66,10.0,18.0,90,0.00,OVC,OVC,0.19,WeatherDisplay:10.31,2013-02-26 22:20:00,
2013-02-26 17:30:00,42.3,39.3,29.75,ENE,69,12.0,20.0,89,0.00,OVC,OVC,0.19,WeatherDisplay:10.31,2013-02-26 22:30:00,
2013-02-26 17:40:00,42.3,39.3,29.74,ENE,58,6.0,20.0,89,0.01,RA,RA,0.20,WeatherDisplay:10.31,2013-02-26 22:40:00,
2013-02-26 17:50:00,42.5,39.5,29.74,ENE,59,7.0,20.0,89,0.00,OVC,OVC,0.20,WeatherDisplay:10.31,2013-02-26 22:50:00,
2013-02-26 18:00:00,42.5,39.2,29.73,ENE,74,8.0,17.0,88,0.01,RA,RA,0.21,WeatherDisplay:10.31,2013-02-26 23:00:00,
2013-02-26 18:05:00,42.5,39.2,29.72,ENE,70,8.0,17.0,88,0.00,RA,RA,0.21,WeatherDisplay:10.31,2013-02-26 23:05:00,
2013-02-26 18:10:00,42.3,39.3,29.71,ENE,61,6.0,18.0,89,0.02,RA,RA,0.23,WeatherDisplay:10.31,2013-02-26 23:10:00,
2013-02-26 18:20:00,42.2,39.2,29.71,NE,56,8.0,16.0,89,0.00,RA,RA,0.25,WeatherDisplay:10.31,2013-02-26 23:20:00,
2013-02-26 18:30:00,42.2,39.5,29.70,ENE,60,7.0,16.0,90,0.01,RA,RA,0.27,WeatherDisplay:10.31,2013-02-26 23:30:00,
2013-02-26 18:40:00,42.1,39.4,29.69,ENE,66,7.0,17.0,90,0.01,RA,RA,0.28,WeatherDisplay:10.31,2013-02-26 23:40:00,
2013-02-26 18:50:00,42.2,39.5,29.69,ENE,57,8.0,15.0,90,0.00,OVC,OVC,0.28,WeatherDisplay:10.31,2013-02-26 23:50:00,
2013-02-26 19:00:00,42.2,39.8,29.68,NE,56,8.0,17.0,91,0.00,OVC,OVC,0.28,WeatherDisplay:10.31,2013-02-27 00:00:00,
2013-02-26 19:05:00,42.2,39.8,29.68,NE,52,8.0,17.0,91,0.01,RA,RA,0.29,WeatherDisplay:10.31,2013-02-27 00:05:00,
2013-02-26 19:10:00,42.3,39.9,29.69,NE,56,5.0,17.0,91,0.00,RA,RA,0.29,WeatherDisplay:10.31,2013-02-27 00:10:00,
2013-02-26 19:20:00,42.5,40.3,29.68,ENE,68,7.0,18.0,92,0.01,RA,RA,0.30,WeatherDisplay:10.31,2013-02-27 00:20:00,
2013-02-26 19:30:00,42.8,40.6,29.67,ENE,65,9.0,15.0,92,0.01,RA,RA,0.32,WeatherDisplay:10.31,2013-02-27 00:30:00,
2013-02-26 19:40:00,42.9,40.7,29.66,ENE,62,6.0,14.0,92,0.01,RA,RA,0.33,WeatherDisplay:10.31,2013-02-27 00:40:00,
2013-02-26 19:50:00,43.1,40.9,29.65,ENE,58,12.0,17.0,92,0.01,RA,RA,0.36,WeatherDisplay:10.31,2013-02-27 00:50:00,
2013-02-26 20:00:00,43.2,41.0,29.64,ENE,62,9.0,15.0,92,0.01,RA,RA,0.38,WeatherDisplay:10.31,2013-02-27 01:00:00,
2013-02-26 20:05:00,43.3,41.1,29.65,ENE,61,7.0,14.0,92,0.00,RA,RA,0.38,WeatherDisplay:10.31,2013-02-27 01:05:00,
2013-02-26 20:10:00,43.4,41.5,29.65,ENE,58,10.0,16.0,93,0.01,RA,RA,0.39,WeatherDisplay:10.31,2013-02-27 01:10:00,
2013-02-26 20:20:00,43.5,41.6,29.65,NE,54,8.0,12.0,93,0.02,RA,RA,0.43,WeatherDisplay:10.31,2013-02-27 01:20:00,
2013-02-26 20:30:00,43.8,41.9,29.64,ENE,64,10.0,17.0,93,0.00,RA,RA,0.45,WeatherDisplay:10.31,2013-02-27 01:30:00,
2013-02-26 20:40:00,43.8,41.9,29.65,NE,50,6.0,15.0,93,0.01,RA,RA,0.46,WeatherDisplay:10.31,2013-02-27 01:40:00,
2013-02-26 20:50:00,43.9,42.0,29.66,ENE,57,3.0,6.0,93,0.03,RA,RA,0.50,WeatherDisplay:10.31,2013-02-27 01:50:00,
2013-02-26 21:00:00,44.1,42.2,29.67,NE,50,0.0,7.0,93,0.01,RA,RA,0.53,WeatherDisplay:10.31,2013-02-27 02:00:00,
2013-02-26 21:05:00,44.1,42.2,29.68,ENE,58,1.0,5.0,93,0.03,RA,RA,0.56,WeatherDisplay:10.31,2013-02-27 02:05:00,
2013-02-26 21:10:00,44.1,42.2,29.67,NE,45,1.0,3.0,93,0.02,RA,RA,0.58,WeatherDisplay:10.31,2013-02-27 02:10:00,
2013-02-26 21:20:00,44.1,42.2,29.65,NE,38,6.0,12.0,93,0.02,RA,RA,0.63,WeatherDisplay:10.31,2013-02-27 02:20:00,
2013-02-26 21:30:00,44.2,42.3,29.66,NE,42,3.0,5.0,93,0.01,RA,RA,0.65,WeatherDisplay:10.31,2013-02-27 02:30:00,
2013-02-26 21:40:00,44.2,42.3,29.63,NE,38,5.0,9.0,93,0.02,RA,RA,0.67,WeatherDisplay:10.31,2013-02-27 02:40:00,
2013-02-26 21:50:00,44.2,42.3,29.63,NE,52,5.0,6.0,93,0.02,RA,RA,0.70,WeatherDisplay:10.31,2013-02-27 02:50:00,
2013-02-26 22:00:00,44.2,42.3,29.62,NE,45,3.0,7.0,93,0.00,RA,RA,0.71,WeatherDisplay:10.31,2013-02-27 03:00:00,
2013-02-26 22:05:00,44.2,42.6,29.61,NE,41,2.0,7.0,94,0.00,OVC,OVC,0.71,WeatherDisplay:10.31,2013-02-27 03:05:00,
2013-02-26 22:10:00,44.3,42.7,29.58,NE,50,6.0,12.0,94,0.01,RA,RA,0.72,WeatherDisplay:10.31,2013-02-27 03:10:00,
2013-02-26 22:20:00,44.5,42.9,29.58,NE,50,6.0,10.0,94,0.01,RA,RA,0.73,WeatherDisplay:10.31,2013-02-27 03:20:00,
2013-02-26 22:30:00,44.6,43.0,29.58,NE,46,5.0,9.0,94,0.00,OVC,OVC,0.73,WeatherDisplay:10.31,2013-02-27 03:30:00,
2013-02-26 22:40:00,44.5,42.9,29.57,NE,45,5.0,16.0,94,0.00,OVC,OVC,0.73,WeatherDisplay:10.31,2013-02-27 03:40:00,
2013-02-26 22:45:00,44.5,42.9,29.57,NE,41,6.0,10.0,94,0.00,OVC,OVC,0.73,WeatherDisplay:10.31,2013-02-27 03:45:00,
2013-02-26 22:55:00,44.5,42.9,29.57,NNE,32,3.0,12.0,94,0.00,OVC,OVC,0.73,WeatherDisplay:10.31,2013-02-27 03:55:00,
2013-02-26 23:00:00,44.5,42.9,29.57,NE,38,3.0,12.0,94,0.00,OVC,OVC,0.73,WeatherDisplay:10.31,2013-02-27 04:00:00,
2013-02-26 23:05:00,44.5,42.9,29.56,NE,35,5.0,10.0,94,0.01,RA,RA,0.74,WeatherDisplay:10.31,2013-02-27 04:05:00,
2013-02-26 23:10:00,44.5,42.9,29.56,NNE,28,2.0,10.0,94,0.00,RA,RA,0.74,WeatherDisplay:10.31,2013-02-27 04:10:00,
2013-02-26 23:20:00,44.2,42.6,29.55,North,11,3.0,10.0,94,0.00,OVC,OVC,0.74,WeatherDisplay:10.31,2013-02-27 04:20:00,
2013-02-26 23:30:00,44.2,42.6,29.55,NNE,22,5.0,12.0,94,0.00,OVC,OVC,0.74,WeatherDisplay:10.31,2013-02-27 04:30:00,
2013-02-26 23:40:00,44.3,42.7,29.55,NE,35,3.0,7.0,94,0.00,OVC,OVC,0.74,WeatherDisplay:10.31,2013-02-27 04:40:00,
2013-02-26 23:50:00,44.5,42.9,29.54,NE,40,3.0,7.0,94,0.01,RA,RA,0.75,WeatherDisplay:10.31,2013-02-27 04:50:00,